Location: ??
(35.5052°N, 139.7262°E)
Time: 01:10:43
(UTC+00:00)

Envisat - Visible Passes

Search period start: 27 September 2021 00:00
Search period end: 07 October 2021 00:00
Orbit: 764 x 766 km, 98.2° (Epoch: 26 September)

Date Brightness Start Highest point End Pass type
(mag) Time Alt. Az. Time Alt. Az. Time Alt. Az.
27 Sep 3.8 19:29:05 10° NNE 19:34:04 54° E 19:39:01 10° S visible
28 Sep 5.4 18:53:06 10° NE 18:57:04 23° E 19:01:00 10° SE visible
29 Sep 3.0 19:54:19 10° N 19:59:24 83° WNW 20:04:28 10° SSW visible
30 Sep 4.4 19:17:44 10° NNE 19:22:31 41° E 19:27:17 10° SSE visible
01 Oct 5.8 18:42:07 10° NE 18:45:28 17° E 18:48:47 10° SE visible
02 Oct 3.2 19:42:48 10° NNE 19:47:54 77° ESE 19:52:58 10° S visible
03 Oct 4.9 19:06:27 10° NE 19:10:58 32° E 19:15:27 10° SSE visible
04 Oct 6.0 18:31:28 10° ENE 18:33:50 13° E 18:36:13 10° ESE visible
04 Oct 3.1 20:08:11 10° N 20:13:11 59° WNW 20:18:09 10° SSW visible
05 Oct 3.7 19:31:21 10° NNE 19:36:23 58° E 19:41:22 10° S visible
06 Oct 5.3 18:55:16 10° NE 18:59:23 25° E 19:03:29 10° SSE visible
